Flag for U.S.A. Weather past 2 weeks in Kilgore, Texas, U.S.A.

Now
75 °F

Sunny.


Feels Like: 77 °F
Forecast: 51 / 79 °F
Wind: 3 mph from Southeast

Location: Gregg County Airport

Current Time: Oct 24, 2014 at 6:40:57 PM

Latest Report: Oct 24, 2014 at 5:53 PM


Visibility: 10 mi

Pressure: 30.09 "Hg

Humidity: 58%

Dew point: 59 °F

Location of KilgoreLocation

Historic Weather in Kilgore — Graph

°F

Kilgore temperature yesterday

Maximum temperature yesterday: 75 °F (at 3:53 PM)
Minimum temperature yesterday: 55 °F (at 11:53 PM)
Average temperature yesterday: 62 °F

Past Weeks' High & Low Weather Summary

 TemperatureHumidityPressure
High89 °F (Oct 10, 4:53 PM)97% (Oct 12, 2:59 PM)30.19 "Hg (Oct 12, 2:59 PM)
Low49 °F (Oct 15, 2:53 AM)27% (Oct 16, 2:53 PM)29.63 "Hg (Oct 13, 3:53 AM)
Average66 °F74%29.99 "Hg
* Reported Oct 9 4:53 PM — Oct 24 4:53 PM, Kilgore, Weather by CustomWeather, © 2014

Note: Actual official high and low records may vary slightly from our data, if they occured in-between our weather recording intervals... More about our weather records

Advertising

Kilgore weather history for previous 24 hours

 ConditionsComfort  
Time TempWeatherWind HumidityBarometerVisibility
4:53 PM
Oct 24
78 °FSunny.5 mph46%30.09 "Hg10 mi
3:53 PM78 °FSunny.No wind45%30.09 "Hg10 mi
2:53 PM78 °FSunny.3 mph45%30.10 "Hg10 mi
1:53 PM77 °FSunny.No wind44%30.12 "Hg10 mi
12:53 PM74 °FSunny.No wind45%30.15 "Hg10 mi
11:53 AM70 °FSunny.3 mph51%30.17 "Hg10 mi
10:53 AM66 °FSunny.3 mph59%30.19 "Hg10 mi
9:53 AM62 °FSunny.3 mph70%30.18 "Hg10 mi
8:53 AM57 °FSunny.No wind87%30.17 "Hg10 mi
7:53 AM51 °FClear.No wind92%30.16 "Hg8 mi
6:53 AM51 °FClear.No wind92%30.15 "Hg9 mi
5:53 AM51 °FClear.No wind92%30.13 "Hg10 mi
4:53 AM53 °FClear.No wind89%30.13 "Hg10 mi
3:53 AM53 °FClear.No wind89%30.12 "Hg10 mi
2:53 AM53 °FClear.3 mph89%30.13 "Hg10 mi
1:53 AM54 °FClear.No wind90%30.13 "Hg10 mi
12:53 AM55 °FClear.No wind87%30.12 "Hg10 mi
11:53 PM
Oct 23
55 °FClear.No wind90%30.13 "Hg10 mi
10:53 PM56 °FClear.No wind84%30.12 "Hg10 mi
9:53 PM56 °FClear.No wind84%30.12 "Hg10 mi
8:53 PM59 °FClear.No wind72%30.11 "Hg10 mi
7:53 PM61 °FClear.3 mph70%30.11 "Hg10 mi
6:53 PM64 °FSunny.5 mph68%30.09 "Hg10 mi
Weather by CustomWeather, © 2014

See weather overviewHow to use our weather pages